Location: ??
(31.9467°N, 34.8903°E)
Time: 01:59:09
(UTC+00:00)

Cosmos 1417 Rocket - Pass Details

Date: 29 October 2020
Orbit: 952 x 998 km, 83.0° (Epoch: 25 November)

Event Time Altitude Azimuth Distance (km) Brightness Sun altitude
Rises 15:34:10 0° 176° (S) 3,645 7.6 -9.3°
Reaches altitude 10° 15:36:39 10° 174° (S) 2,708 6.9 -9.8°
Maximum altitude 15:42:48 66° 93° (E) 1,062 4.5 -11.1°
Drops below altitude 10° 15:49:03 10° 12° (NNE) 2,753 6.7 -12.4°
Sets 15:51:36 0° 10° (N) 3,710 7.4 -13.0°
